Preview of NWS' New Version of Forecast
This preview is not operational and should not be used for support decisions.

Regional Weather Roundup (RWR)

Issued by National Weather Service (NWS)

                            
000
ASUS43 KLSX 240507
RWRMO 

WEATHER SUMMARY FOR MISSOURI
NATIONAL WEATHER SERVICE SPRINGFIELD MO
1200 AM CDT FRI MAY 24 2019

NOTE: "FAIR" INDICATES FEW OR NO CLOUDS BELOW 12,000 FEET WITH NO
       SIGNIFICANT WEATHER AND/OR OBSTRUCTIONS TO VISIBILITY.
       CURRENT SKY AND/OR WEATHER CONDITIONS ARE NOT AVAILABLE FOR
       CHILLICOTHE AND FARMINGTON.

MOZ001>031-035>038-043-044-053-054-240600-
...NORTHERN AND WESTERN MISSOURI...
  
CITY           SKY/WX    TMP DP  RH WIND       PRES   REMARKS
KANSAS CTY INT CLOUDY    70  64  81 SE10      29.98F                  
KANSAS C DTWN  CLOUDY    73  66  78 SE8       29.96F                  
LEE'S SUMMIT   CLOUDY    70  66  87 SE7       29.99F                  
ST JOSEPH      CLOUDY    68  61  78 S14       29.94F                  
CHILLICOTHE      N/A     71  63  75 VRB5      30.02S                  
KIRKSVILLE     CLOUDY    69  60  73 SE7       30.06R                  
     
$$
MOZ066>068-077>081-088>096-101>105-240600-
...SOUTHWEST MISSOURI...
  
CITY           SKY/WX    TMP DP  RH WIND       PRES   REMARKS
SPRINGFIELD    CLEAR     72  66  81 S9        30.04S                  
JOPLIN         CLEAR     72  67  84 SE8       30.01S                  
BRANSON        CLEAR     70  66  88 CALM      30.07S                  
               
$$
MOZ032>034-039>042-045>050-055>058-069>072-240600-
...CENTRAL MISSOURI...  
  
CITY           SKY/WX    TMP DP  RH WIND       PRES   REMARKS
COLUMBIA       CLOUDY    73  67  81 E9        30.03F                  
ROLLA          CLEAR     70  67  90 SE7       30.06F                  
SEDALIA        PTCLDY    68  68 100 SE7       30.02S                  
WHITEMAN AFB   CLOUDY    72  72 100 SE5       29.96F                  
WARRENSBURG    CLOUDY    72  68  88 SE7       30.00F                  
OSAGE BEACH    CLEAR     72  71  97 S5        30.04S                  
               
$$
MOZ051-052-059>065-240600-
...EAST CENTRAL MISSOURI...
  
CITY           SKY/WX    TMP DP  RH WIND       PRES   REMARKS
ST LOUIS INTL  MOCLDY    75  65  70 SE3       30.06F                  
SPIRIT OF STL  PTCLDY    71  69  93 CALM      30.04F                  
ST CHARLES     CLOUDY    71  68  90 CALM      30.04F                  
                   
$$
MOZ072>076-082>087-097>100-106>115-240600-
...SOUTH CENTRAL AND SOUTHEAST MISSOURI...
  
CITY           SKY/WX    TMP DP  RH WIND       PRES   REMARKS
CAPE GIRARDEAU FAIR      73  68  84 S6        30.07S                  
FARMINGTON     CLEAR     69  68  96 S5        30.09S                  
POPLAR BLUFF   FAIR      70  70 100 CALM      30.06F                  
WEST PLAINS    CLEAR     73  68  84 S6        30.09S                  
                                       
$$